Tracking 19245 objects as of 17-Aug-2018
HD Live streaming from Space Station
objects crossing your sky now

COSMOS 2380 (GLONASS)

Track COSMOS 2380 (GLONASS) now!
COSMOS 2380 (GLONASS) is classified as:


NORAD ID: 26989
Int'l Code: 2001-053C
Perigee: 19,126.1 km
Apogee: 19,147.8 km
Inclination: 63.0 °
Period: 675.7 minutes
Semi major axis: 25507 km
RCS: 1.9952 m2 (large)
Launch date: December 1, 2001
Source: Commonwealth of Independent States (former USSR) (CIS)
Launch site: TYURATAM MISSILE AND SPACE COMPLEX (TTMTR)
SV:
aabbcc
Your satellite tracking list
Your tracking list is empty




NASA's NSSDC Master Catalog

Two Line Element Set (TLE):
1 26989U 01053C   18228.94233009  .00000006  00000-0  00000+0 0  9999
2 26989  62.9597 159.8866 0004250  21.4682 271.1341  2.13103227130038
Source of the keplerian elements: AFSPC